This is the latest recevied weather packets stored in our database for station/object K3HM. If no packets are shown the sender has not sent any weather packets the latest 10 day(s).
| Time | Temp. | Humidity | Pressure | Rain* | Wind** | Luminosity | Snow |
|---|---|---|---|---|---|---|---|
| 1777854006 | 7.22° C | 57% | 1014.9 hPa | 0 mm | - | 1 W/m² | - |
| 1777853703 | 7.78° C | 55% | 1014.9 hPa | 0 mm | - | 2 W/m² | - |
| 1777853399 | 7.78° C | 52% | 1014.9 hPa | 0 mm | - | 3 W/m² | - |
| 1777853097 | 8.33° C | 52% | 1015.1 hPa | 0 mm | - | 5 W/m² | - |
| 1777852794 | 8.89° C | 51% | 1015 hPa | 0 mm | - | 7 W/m² | - |
| 1777852491 | 8.89° C | 50% | 1015 hPa | 0 mm | - | 9 W/m² | - |
| 1777852188 | 8.89° C | 50% | 1015 hPa | 0 mm | - | 14 W/m² | - |
| 1777851886 | 8.89° C | 50% | 1015 hPa | 0 mm | - | 16 W/m² | - |
| 1777851584 | 9.44° C | 48% | 1015 hPa | 0 mm | - | 18 W/m² | - |
| 1777851280 | 9.44° C | 47% | 1014.9 hPa | 0 mm | - | 21 W/m² | - |
| 1777850976 | 9.44° C | 48% | 1015 hPa | 0 mm | - | 24 W/m² | - |
| 1777850673 | 10° C | 47% | 1014.7 hPa | 0 mm | - | 28 W/m² | - |
| 1777850372 | 10° C | 47% | 1014.9 hPa | 0 mm | - | 33 W/m² | - |
| 1777850069 | 10° C | 46% | 1014.8 hPa | 0 mm | - | 39 W/m² | - |
| 1777849765 | 10° C | 46% | 1014.8 hPa | 0 mm | - | 49 W/m² | - |
| 1777849461 | 10.56° C | 45% | 1015 hPa | 0 mm | - | 54 W/m² | - |
| 1777849160 | 10.56° C | 45% | 1014.9 hPa | 0 mm | - | 64 W/m² | - |
| 1777848856 | 10.56° C | 44% | 1014.8 hPa | 0 mm | - | 88 W/m² | - |
| 1777848551 | 10.56° C | 46% | 1014.7 hPa | 0 mm | - | 72 W/m² | - |
| 1777848249 | 10.56° C | 45% | 1014.8 hPa | 0 mm | - | 77 W/m² | - |
| 1777847946 | 10.56° C | 46% | 1015 hPa | 0 mm | - | 59 W/m² | - |
| 1777847644 | 10.56° C | 45% | 1014.9 hPa | 0 mm | - | 101 W/m² | - |
| 1777847339 | 10.56° C | 46% | 1015.1 hPa | 0 mm | - | 157 W/m² | - |
| 1777847038 | 10.56° C | 45% | 1015 hPa | 0 mm | - | 64 W/m² | - |
| 1777846736 | 10.56° C | 45% | 1015 hPa | 0 mm | - | 147 W/m² | - |
* Rain latest hour (hover to see other rain measurements)
** Current wind speed in m/s (hover to see current wind gust speed)